Weather History for NW Arkansas Airport, AR

Change the Weather History Date:

Monday, April 29, 2013

  Actual Average Record
Temperature  
Mean Temperature 63 °F -  
Max Temperature 81 °F - - ()
Min Temperature 46 °F - - ()
Degree Days  
Heating Degree Days 2    
Growing Degree Days 13 (Base 50)    
Moisture  
Dew Point 54 °F    
Average Humidity 68    
Maximum Humidity 100    
Minimum Humidity 38    
Precipitation  
Precipitation 0.00 in - - ()
Sea Level Pressure  
Sea Level Pressure 29.83 in    
Wind  
Wind Speed 7 mph (SSW)    
Max Wind Speed 18 mph    
Max Gust Speed 24 mph    
Visibility 10 miles    
Events      
T = Trace of Precipitation, MM = Missing Value Source: NWS Daily Summary

Daily Weather History Graph

Daily Weather History Graph

Search for Another Location

Airport:

Trip Planner

Search our weather history database for the weather conditions in past years. The results will help you decide how hot, cold, wet, or windy it might be!

Date:

Astronomy

Apr. 29, 2013 Rise Set
Actual Time 6:26 AM CDT 8:03 PM CDT
Civil Twilight 5:58 AM CDT 8:31 PM CDT
Nautical Twilight 5:25 AM CDT 9:04 PM CDT
Astronomical Twilight 4:50 AM CDT 9:39 PM CDT
Moon No Moon Rise 9:50 AM CDT (4/29)
Length of Visible Light 14h 32m
Length of Day
13h 37m
Waning Gibbous, 80% of the Moon is Illuminated
Apr 29
Waning Gibbous
May 2
Last Quarter
May 9
New
May 17
First Quarter
May 24
Full

Hourly Weather History & Observations

Time (CDT) Temp. Heat Index Dew Point Humidity Pressure Visibility Wind Dir Wind Speed Gust Speed Precip Events Conditions
12:53 AM 54.0 °F - 53.1 °F 97% 29.88 in 10.0 mi South 4.6 mph - N/A   Clear
1:53 AM 54.0 °F - 53.1 °F 97% 29.87 in 10.0 mi SSE 3.5 mph - N/A   Clear
2:53 AM 53.1 °F - 52.0 °F 96% 29.87 in 10.0 mi South 3.5 mph - N/A   Clear
3:53 AM 50.0 °F - 50.0 °F 100% 29.86 in 10.0 mi South 3.5 mph - N/A   Clear
4:53 AM 51.1 °F - 50.0 °F 96% 29.87 in 10.0 mi Calm Calm - N/A   Clear
5:53 AM 46.9 °F - 46.9 °F 100% 29.88 in 10.0 mi Calm Calm - N/A   Clear
6:53 AM 50.0 °F - 50.0 °F 100% 29.90 in 10.0 mi Calm Calm - N/A   Clear
7:53 AM 57.9 °F - 55.0 °F 90% 29.90 in 10.0 mi South 4.6 mph - N/A   Clear
8:53 AM 64.0 °F - 57.0 °F 78% 29.89 in 10.0 mi South 10.4 mph - N/A   Clear
9:53 AM 70.0 °F - 59.0 °F 68% 29.88 in 10.0 mi SSW 10.4 mph - N/A   Clear
10:53 AM 73.9 °F - 60.1 °F 62% 29.88 in 10.0 mi SSW 12.7 mph 19.6 mph N/A   Clear
11:53 AM 75.9 °F - 57.9 °F 54% 29.86 in 10.0 mi South 18.4 mph 23.0 mph N/A   Clear
12:53 PM 78.1 °F - 57.0 °F 48% 29.84 in 10.0 mi South 17.3 mph 24.2 mph N/A   Partly Cloudy
1:53 PM 80.1 °F 80.2 °F 55.9 °F 43% 29.82 in 10.0 mi SSW 16.1 mph 21.9 mph N/A   Clear
2:53 PM 80.1 °F 80.0 °F 54.0 °F 40% 29.81 in 10.0 mi SSW 12.7 mph 21.9 mph N/A   Clear
3:53 PM 80.1 °F 80.0 °F 54.0 °F 40% 29.79 in 10.0 mi SSW 15.0 mph 21.9 mph N/A   Clear
4:53 PM 80.1 °F 80.4 °F 57.0 °F 45% 29.77 in 10.0 mi SSW 12.7 mph - N/A   Partly Cloudy
5:53 PM 80.1 °F - 52.0 °F 38% 29.77 in 10.0 mi South 15.0 mph 23.0 mph N/A   Clear
6:53 PM 77.0 °F - 53.1 °F 43% 29.76 in 10.0 mi SSW 8.1 mph - N/A   Clear
7:53 PM 73.0 °F - 53.1 °F 49% 29.76 in 10.0 mi South 6.9 mph - N/A   Clear
8:53 PM 68.0 °F - 53.1 °F 59% 29.78 in 10.0 mi South 6.9 mph - N/A   Clear
9:53 PM 68.0 °F - 52.0 °F 56% 29.79 in 10.0 mi SSW 6.9 mph - N/A   Clear
10:53 PM 64.9 °F - 52.0 °F 63% 29.80 in 10.0 mi SSW 5.8 mph - N/A   Clear
11:53 PM 63.0 °F - 53.1 °F 70% 29.80 in 10.0 mi South 6.9 mph - N/A   Clear